Simultaneous Nadir Overpasses (SNOs) Predictions

Prediction of SNOs between GOES-15 and METOP-A Satellite Orbit:

Table of predicted SNOs for the next 14.0 days since TLE Epoch: 5/29/2021
Index Date Time (GOES-15) GOES-15 Lat,Lon METOP-A Lat,Lon Distance(km) Time Diff (sec)
1 05/29/2021 16:46:10 -0.04,-128.45 0.18,-129.57 126.86 80
2 05/30/2021 16:28:10 -0.04,-128.46 -0.88,-124.58 441.54 80
3 06/01/2021 04:47:10 0.05,-128.41 -0.14,-129.22 92.55 80
4 06/02/2021 04:23:50 0.05,-128.42 0.98,-124.25 475.30 80
5 06/03/2021 16:42:42 -0.05,-128.50 0.05,-128.85 40.27 80
6 06/06/2021 04:43:42 0.06,-128.46 0.06,-128.51 5.54 80
7 06/08/2021 16:41:54 -0.06,-128.54 -0.15,-128.14 45.08 80
8 06/10/2021 05:00:55 0.07,-128.49 -0.85,-132.78 488.14 80
9 06/11/2021 04:37:34 0.07,-128.49 0.21,-127.80 78.56 80
